Regional Weather Roundup
Issued by NWS

Home | Current Version | Previous Version | Text Only | Print | Product List | Glossary Off
Versions: 1 2 3 4 5 6 7 8 9 10 11 12 13 14 15 16 17 18 19 20 21 22 23 24 25 26 27 28 29 30 31 32 33 34 35 36 37 38 39 40 41 42 43 44 45 46 47 48 49 50

000
ASUS43 KFSD 221402
RWRSD

WEATHER ROUNDUP FOR SOUTH DAKOTA
NATIONAL WEATHER SERVICE SIOUX FALLS SD
800 AM CST SUN JAN 22 2017

NOTE: "FAIR" INDICATES FEW OR NO CLOUDS BELOW 12,000 FEET WITH NO
SIGNIFICANT WEATHER AND/OR OBSTRUCTIONS TO VISIBILITY.


SDZ001>005-009-010-012>017-221500-
NORTHWEST AND NORTH CENTRAL SOUTH DAKOTA

CITY           SKY/WX    TMP DP  RH WIND       PRES   REMARKS
BUFFALO          N/A     17  14  88 NW12      29.71R WCI   4
FAITH            N/A     18  16  92 NW13      29.77R WCI   5
MOBRIDGE       CLOUDY    13   8  81 W3        29.76R
$$

SDZ012>016-024>037-041>051-057-063-072>074-221500-
SOUTHWEST AND SOUTH CENTRAL SOUTH DAKOTA

CITY           SKY/WX    TMP DP  RH WIND       PRES   REMARKS
RAPID CTY ARPT CLEAR     24  17  74 NW9       29.79R WCI  14
PIERRE         CLOUDY    20  17  88 W5        29.78R WCI  13
CUSTER         CLEAR     26  16  65 NW8       29.76R WCI  18
PHILIP         CLEAR     22  20  92 W10       29.80R WCI  11
PINE RIDGE     CLEAR     14  13  95 W3        29.82R FOG
SPEARFISH      FAIR      27  18  69 W8        29.80R WCI  18
WINNER         FAIR      24  21  88 W3        29.79R
$$

SDZ004>011-016>023-039-040-221500-
NORTHEAST SOUTH DAKOTA

CITY           SKY/WX    TMP DP  RH WIND       PRES   REMARKS
ABERDEEN       CLOUDY    27  23  85 W7        29.75R WCI  19
WATERTOWN      FOG       30  30 100 W8        29.70R VSB 1/4 WCI  22
BROOKINGS      CLOUDY    31  30  96 NW13      29.71R FOG     WCI  21
SISSETON         N/A     33  32  96 NW13      29.71R WCI  24
$$

SDZ017-020-022-023-036>040-048>070-221500-
SOUTHEAST SOUTH DAKOTA

CITY           SKY/WX    TMP DP  RH WIND       PRES   REMARKS
SIOUX FALLS    FLURRIES  33  32  96 NW10      29.72R WCI  25
HURON          CLEAR     20  20 100 N6        29.77R WCI  12
CHAMBERLAIN    CLEAR     22  21  96 W9        29.78R WCI  12
MITCHELL       PTCLDY    27  27 100 NW7       29.77R FOG     WCI  19
YANKTON        CLEAR     28  25  86 NW9       29.75R WCI  20
$$

ABBREVIATIONS USED IN REMARKS
   TC - TEMPERATURE IN CELSIUS
  WCI - WIND CHILL INDEX
   HX - HEAT INDEX
  VSB - VISIBILITY




USA.gov is the U.S. government's official web portal to all federal, state and local government web resources and services.